Starlink 11503

operational
NORAD ID: 63142 Int'l Des: 2025-043 Owner: SPXS Country: US Constellation: starlink
LEOCIRCULAR

关于 Starlink 11503

正在加载描述...

实时位置

正在加载3D地球...

即将过境

高度历史

Altitude vs Time

uPlot chart will show altitude changes over time

两行轨道根数

1 63142U 25043L 25351.13895064 .00211225 00000-0 16055-2 0 9994
2 63142 43.0001 27.8906 0001747 255.5025 104.5649 15.70879135 46310
Epoch: Dec 17, 2025 • Age: 13 hours

当前状态

高度 367.8 km
速度 7.69 km/s
星下点 -43.05°S, 47.07°W
发射日期 Mar 3, 2025
运行时间 0.7 years
类型 internet

技术详情

分类 Payload
质量 960.00 kg
干质量 910.00 kg
总质量 960.00 kg
长度 0.30 m
直径 4.10 m
跨度 29.00 m
形状 Box + pan
制造商 SPXS
平台类型 Starlink V2MD
阶段状态 In Orbit
所有者/国家 SPXS/US

大型星座

Loading constellations...